EW6425 Weather Reports


time (UTC)temp
C
wind
direction
speed
KPH
gust
KPH
rain 1hr
cm
rain 24hr
cm
rain mn
cm
humidity
%
barometer
mb
20260504081544 2 242 17.7 54.7 0.08 1.24 0.43 93 980.2
20260504050014 3 309 8.0 17.7 0.08 0.89 0.10 93 975.3
20260504044507 3 330 3.2 9.7 0.10 0.91 0.10 93 975.1
20260504043005 3 355 4.8 12.9 0.05 0.89 0.05 93 975.2
20260504041505 3 47 4.8 16.1 0.05 0.86 0.05 92 975.3
20260504040002 3 64 4.8 16.1 0.03 0.84 0.03 92 975.5
20260504034559 3 53 6.4 17.7 0.00 0.81 0.00 92 975.9
20260504033102 3 64 8.0 20.9 0.03 0.81 0.00 92 976.1
20260504031555 3 100 9.7 24.1 0.03 0.81 0.00 92 976.8
20260504030051 4 86 8.0 30.6 0.03 0.81 0.00 92 977.3
20260504024552 4 109 11.3 20.9 0.03 0.81 0.81 92 978.1
20260504023046 5 126 14.5 32.2 0.00 0.79 0.79 92 978.5
20260504021544 5 46 12.9 32.2 0.00 0.79 0.79 92 978.6
20260504020122 5 74 17.7 41.8 0.00 0.79 0.79 93 979.0
20260504014555 4 71 12.9 25.7 0.00 0.79 0.79 92 980.0
20260504013045 4 70 11.3 24.1 0.00 0.79 0.79 92 980.9
20260504011534 4 71 17.7 32.2 0.03 0.79 0.79 92 981.3
20260504010031 4 65 19.3 41.8 0.03 0.79 0.79 92 982.2
20260504004533 4 64 17.7 41.8 0.03 0.79 0.79 92 983.1
20260504003027 4 78 19.3 33.8 0.03 0.79 0.79 92 983.9
20260504001525 4 66 19.3 43.5 0.03 0.79 0.79 92 984.2
20260504000023 5 66 24.1 45.1 0.10 0.79 0.79 92 984.8
20260503234522 4 84 20.9 45.1 0.13 0.79 0.79 92 985.7
20260503233021 4 71 22.5 43.5 0.15 0.79 0.79 92 986.4
20260503231516 3 83 20.9 45.1 0.15 0.76 0.76 92 987.6
20260503230013 3 82 24.1 41.8 0.08 0.69 0.69 92 988.7
20260503224508 3 83 17.7 46.7 0.13 0.66 0.66 91 989.6
20260503223006 3 63 25.7 46.7 0.20 0.64 0.64 92 990.4
20260503221605 3 90 19.3 33.8 0.23 0.61 0.61 91 991.6
20260503220059 3 92 17.7 35.4 0.23 0.61 0.61 91 992.6
20260503214559 3 76 19.3 35.4 0.20 0.53 0.53 91 993.7
20260503213053 4 74 11.3 29.0 0.15 0.43 0.43 91 994.3
20260503211650 4 59 14.5 35.4 0.10 0.38 0.38 90 994.5
20260503210051 4 69 19.3 41.8 0.10 0.36 0.36 90 994.6
20260503204548 5 78 24.1 40.2 0.10 0.33 0.33 89 995.0
20260503203103 6 77 17.7 24.1 0.15 0.30 0.30 89 996.0
20260503201543 6 94 12.9 22.5 0.15 0.28 0.28 89 996.4
20260503200040 5 77 9.7 20.9 0.15 0.25 0.25 88 997.1
20260503194542 5 65 11.3 20.9 0.10 0.23 0.23 87 998.0
20260503193038 6 78 14.5 20.9 0.08 0.15 0.15 86 998.8
20260503191536 5 5 17.7 32.2 0.10 0.13 0.13 86 999.0
20260503190037 5 69 17.7 29.0 0.10 0.13 0.13 86 1000.2
20260503184525 6 76 11.3 25.7 0.10 0.13 0.13 83 1001.6
20260503183019 6 58 12.9 24.1 0.05 0.08 0.08 79 1002.7
20260503181517 7 64 9.7 27.4 0.00 0.03 0.03 80 1003.4
20260503180013 7 74 11.3 22.5 0.00 0.03 0.03 79 1004.8
20260503174510 8 107 9.7 24.1 0.00 0.03 0.03 77 1005.6
20260503173008 8 91 11.3 24.1 0.00 0.03 0.03 75 1005.9
20260503171506 9 111 11.3 22.5 0.00 0.03 0.03 75 1006.5